Year,Month,Day,Hour,Minute,Value (Times are PST for temperature in C)
2006,09,04,00,00,15.70
2006,09,04,00,01,15.70
2006,09,04,00,02,15.60
2006,09,04,00,03,15.60
2006,09,04,00,04,15.60
2006,09,04,00,05,15.50
2006,09,04,00,06,15.50
2006,09,04,00,07,15.50
2006,09,04,00,08,15.50
2006,09,04,00,09,15.40
2006,09,04,00,10,15.40
2006,09,04,00,11,15.40
2006,09,04,00,12,15.40
2006,09,04,00,13,15.30
2006,09,04,00,14,15.30
2006,09,04,00,15,15.30
2006,09,04,00,16,15.30
2006,09,04,00,17,15.30
2006,09,04,00,18,15.30
2006,09,04,00,19,15.30
2006,09,04,00,20,15.30
2006,09,04,00,21,15.30
2006,09,04,00,22,15.30
2006,09,04,00,23,15.30
2006,09,04,00,24,15.30
2006,09,04,00,25,15.30
2006,09,04,00,26,15.30
2006,09,04,00,27,15.30
2006,09,04,00,28,15.20
2006,09,04,00,29,15.20
2006,09,04,00,30,15.20
2006,09,04,00,31,15.20
2006,09,04,00,32,15.10
2006,09,04,00,33,15.10
2006,09,04,00,34,15.10
2006,09,04,00,35,15.00
2006,09,04,00,36,15.00
2006,09,04,00,37,15.00
2006,09,04,00,38,14.90
2006,09,04,00,39,14.90
2006,09,04,00,40,14.90
2006,09,04,00,41,14.90
2006,09,04,00,42,14.80
2006,09,04,00,43,14.80
2006,09,04,00,44,14.80
2006,09,04,00,45,14.80
2006,09,04,00,46,14.80
2006,09,04,00,47,14.80
2006,09,04,00,48,14.80
2006,09,04,00,49,14.80
2006,09,04,00,50,14.80
2006,09,04,00,51,14.70
2006,09,04,00,52,14.70
2006,09,04,00,53,14.70
2006,09,04,00,54,14.70
2006,09,04,00,55,14.70
2006,09,04,00,56,14.70
2006,09,04,00,57,14.70
2006,09,04,00,58,14.70
2006,09,04,00,59,14.60
2006,09,04,01,00,14.60
2006,09,04,01,01,14.60
2006,09,04,01,02,14.60
2006,09,04,01,03,14.60
2006,09,04,01,04,14.60
2006,09,04,01,05,14.60
2006,09,04,01,06,14.60
2006,09,04,01,07,14.60
2006,09,04,01,08,14.60
2006,09,04,01,09,14.60
2006,09,04,01,10,14.60
2006,09,04,01,11,14.50
2006,09,04,01,12,14.50
2006,09,04,01,13,14.50
2006,09,04,01,14,14.50
2006,09,04,01,15,14.50
2006,09,04,01,16,14.50
2006,09,04,01,17,14.50
2006,09,04,01,18,14.40
2006,09,04,01,19,14.40
2006,09,04,01,20,14.40
2006,09,04,01,21,14.30
2006,09,04,01,22,14.30
2006,09,04,01,23,14.30
2006,09,04,01,24,14.30
2006,09,04,01,25,14.20
2006,09,04,01,26,14.20
2006,09,04,01,27,14.30
2006,09,04,01,28,14.30
2006,09,04,01,29,14.30
2006,09,04,01,30,14.30
2006,09,04,01,31,14.30
2006,09,04,01,32,14.40
2006,09,04,01,33,14.40
2006,09,04,01,34,14.40
2006,09,04,01,35,14.50
2006,09,04,01,36,14.50
2006,09,04,01,37,14.50
2006,09,04,01,38,14.50
2006,09,04,01,39,14.50
2006,09,04,01,40,14.50
2006,09,04,01,41,14.50
2006,09,04,01,42,14.50
2006,09,04,01,43,14.40
2006,09,04,01,44,14.40
2006,09,04,01,45,14.40
2006,09,04,01,46,14.40
2006,09,04,01,47,14.40
2006,09,04,01,48,14.40
2006,09,04,01,49,14.30
2006,09,04,01,50,14.30
2006,09,04,01,51,14.30
2006,09,04,01,52,14.20
2006,09,04,01,53,14.20
2006,09,04,01,54,14.20
2006,09,04,01,55,14.20
2006,09,04,01,56,14.20
2006,09,04,01,57,14.20
2006,09,04,01,58,14.20
2006,09,04,01,59,14.20
2006,09,04,02,00,14.20
2006,09,04,02,01,14.30
2006,09,04,02,02,14.30
2006,09,04,02,03,14.30
2006,09,04,02,04,14.30
2006,09,04,02,05,14.40
2006,09,04,02,06,14.50
2006,09,04,02,07,14.60
2006,09,04,02,08,14.60
2006,09,04,02,09,14.80
2006,09,04,02,10,14.80
2006,09,04,02,11,14.90
2006,09,04,02,12,15.00
2006,09,04,02,13,15.00
2006,09,04,02,14,15.10
2006,09,04,02,15,15.10
2006,09,04,02,16,15.20
2006,09,04,02,17,15.30
2006,09,04,02,18,15.30
2006,09,04,02,19,15.30
2006,09,04,02,20,15.40
2006,09,04,02,21,15.40
2006,09,04,02,22,15.50
2006,09,04,02,23,15.50
2006,09,04,02,24,15.50
2006,09,04,02,25,15.50
2006,09,04,02,26,15.50
2006,09,04,02,27,15.50
2006,09,04,02,28,15.60
2006,09,04,02,29,15.60
2006,09,04,02,30,15.60
2006,09,04,02,31,15.70
2006,09,04,02,32,15.70
2006,09,04,02,33,15.70
2006,09,04,02,34,15.70
2006,09,04,02,35,15.70
2006,09,04,02,36,15.70
2006,09,04,02,37,15.70
2006,09,04,02,38,15.70
2006,09,04,02,39,15.70
2006,09,04,02,40,15.60
2006,09,04,02,41,15.60
2006,09,04,02,42,15.60
2006,09,04,02,43,15.50
2006,09,04,02,44,15.50
2006,09,04,02,45,15.40
2006,09,04,02,46,15.40
2006,09,04,02,47,15.30
2006,09,04,02,48,15.30
2006,09,04,02,49,15.30
2006,09,04,02,50,15.30
2006,09,04,02,51,15.30
2006,09,04,02,52,15.20
2006,09,04,02,53,15.20
2006,09,04,02,54,15.20
2006,09,04,02,55,15.20
2006,09,04,02,56,15.20
2006,09,04,02,57,15.10
2006,09,04,02,58,15.10
2006,09,04,02,59,15.00
2006,09,04,03,00,15.00
2006,09,04,03,01,15.00
2006,09,04,03,02,14.90
2006,09,04,03,03,14.90
2006,09,04,03,04,14.90
2006,09,04,03,05,14.80
2006,09,04,03,06,14.80
2006,09,04,03,07,14.80
2006,09,04,03,08,14.80
2006,09,04,03,09,14.80
2006,09,04,03,10,14.70
2006,09,04,03,11,14.70
2006,09,04,03,12,14.70
2006,09,04,03,13,14.70
2006,09,04,03,14,14.70
2006,09,04,03,15,14.70
2006,09,04,03,16,14.70
2006,09,04,03,17,14.70
2006,09,04,03,18,14.60
2006,09,04,03,19,14.60
2006,09,04,03,20,14.60
2006,09,04,03,21,14.60
2006,09,04,03,22,14.60
2006,09,04,03,23,14.60
2006,09,04,03,24,14.60
2006,09,04,03,25,14.50
2006,09,04,03,26,14.50
2006,09,04,03,27,14.50
2006,09,04,03,28,14.50
2006,09,04,03,29,14.50
2006,09,04,03,30,14.40
2006,09,04,03,31,14.40
2006,09,04,03,32,14.40
2006,09,04,03,33,14.40
2006,09,04,03,34,14.40
2006,09,04,03,35,14.30
2006,09,04,03,36,14.30
2006,09,04,03,37,14.30
2006,09,04,03,38,14.20
2006,09,04,03,39,14.20
2006,09,04,03,40,14.20
2006,09,04,03,41,14.20
2006,09,04,03,42,14.10
2006,09,04,03,43,14.10
2006,09,04,03,44,14.10
2006,09,04,03,45,14.00
2006,09,04,03,46,14.00
2006,09,04,03,47,14.00
2006,09,04,03,48,13.90
2006,09,04,03,49,13.90
2006,09,04,03,50,13.90
2006,09,04,03,51,13.90
2006,09,04,03,52,13.90
2006,09,04,03,53,13.80
2006,09,04,03,54,13.80
2006,09,04,03,55,13.80
2006,09,04,03,56,13.70
2006,09,04,03,57,13.70
2006,09,04,03,58,13.70
2006,09,04,03,59,13.70
2006,09,04,04,00,13.70
2006,09,04,04,01,13.70
2006,09,04,04,02,13.60
2006,09,04,04,03,13.60
2006,09,04,04,04,13.60
2006,09,04,04,05,13.60
2006,09,04,04,06,13.50
2006,09,04,04,07,13.50
2006,09,04,04,08,13.50
2006,09,04,04,09,13.50
2006,09,04,04,10,13.40
2006,09,04,04,11,13.40
2006,09,04,04,12,13.40
2006,09,04,04,13,13.40
2006,09,04,04,14,13.30
2006,09,04,04,15,13.30
2006,09,04,04,16,13.30
2006,09,04,04,17,13.30
2006,09,04,04,18,13.30
2006,09,04,04,19,13.30
2006,09,04,04,20,13.30
2006,09,04,04,21,13.30
2006,09,04,04,22,13.20
2006,09,04,04,23,13.20
2006,09,04,04,24,13.20
2006,09,04,04,25,13.20
2006,09,04,04,26,13.20
2006,09,04,04,27,13.10
2006,09,04,04,28,13.10
2006,09,04,04,29,13.10
2006,09,04,04,30,13.10
2006,09,04,04,31,13.10
2006,09,04,04,32,13.10
2006,09,04,04,33,13.10
2006,09,04,04,34,13.10
2006,09,04,04,35,13.10
2006,09,04,04,36,13.10
2006,09,04,04,37,13.10
2006,09,04,04,38,13.10
2006,09,04,04,39,13.20
2006,09,04,04,40,13.20
2006,09,04,04,41,13.20
2006,09,04,04,42,13.20
2006,09,04,04,43,13.20
2006,09,04,04,44,13.20
2006,09,04,04,45,13.20
2006,09,04,04,46,13.10
2006,09,04,04,47,13.10
2006,09,04,04,48,13.00
2006,09,04,04,49,13.00
2006,09,04,04,50,13.00
2006,09,04,04,51,12.90
2006,09,04,04,52,12.90
2006,09,04,04,53,12.80
2006,09,04,04,54,12.80
2006,09,04,04,55,12.80
2006,09,04,04,56,12.80
2006,09,04,04,57,12.80
2006,09,04,04,58,12.80
2006,09,04,04,59,12.80
2006,09,04,05,00,12.80
2006,09,04,05,01,12.80
2006,09,04,05,02,12.80
2006,09,04,05,03,12.80
2006,09,04,05,04,12.80
2006,09,04,05,05,12.80
2006,09,04,05,06,12.80
2006,09,04,05,07,12.80
2006,09,04,05,08,12.70
2006,09,04,05,09,12.70
2006,09,04,05,10,12.70
2006,09,04,05,11,12.60
2006,09,04,05,12,12.60
2006,09,04,05,13,12.60
2006,09,04,05,14,12.60
2006,09,04,05,15,12.60
2006,09,04,05,16,12.60
2006,09,04,05,17,12.60
2006,09,04,05,18,12.60
2006,09,04,05,19,12.50
2006,09,04,05,20,12.50
2006,09,04,05,21,12.50
2006,09,04,05,22,12.40
2006,09,04,05,23,12.40
2006,09,04,05,24,12.40
2006,09,04,05,25,12.40
2006,09,04,05,26,12.40
2006,09,04,05,27,12.40
2006,09,04,05,28,12.40
2006,09,04,05,29,12.40
2006,09,04,05,30,12.40
2006,09,04,05,31,12.40
2006,09,04,05,32,12.40
2006,09,04,05,33,12.40
2006,09,04,05,34,12.30
2006,09,04,05,35,12.30
2006,09,04,05,36,12.30
2006,09,04,05,37,12.30
2006,09,04,05,38,12.30
2006,09,04,05,39,12.30
2006,09,04,05,40,12.30
2006,09,04,05,41,12.30
2006,09,04,05,42,12.30
2006,09,04,05,43,12.20
2006,09,04,05,44,12.20
2006,09,04,05,45,12.20
2006,09,04,05,46,12.20
2006,09,04,05,47,12.10
2006,09,04,05,48,12.10
2006,09,04,05,49,12.10
2006,09,04,05,50,12.00
2006,09,04,05,51,12.00
2006,09,04,05,52,12.00
2006,09,04,05,53,12.00
2006,09,04,05,54,11.90
2006,09,04,05,55,11.90
2006,09,04,05,56,11.90
2006,09,04,05,57,11.90
2006,09,04,05,58,11.80
2006,09,04,05,59,11.80
2006,09,04,06,00,11.80
2006,09,04,06,01,11.80
2006,09,04,06,02,11.80
2006,09,04,06,03,11.80
2006,09,04,06,04,11.80
2006,09,04,06,05,11.80
2006,09,04,06,06,11.80
2006,09,04,06,07,11.80
2006,09,04,06,08,11.80
2006,09,04,06,09,11.80
2006,09,04,06,10,11.80
2006,09,04,06,11,11.70
2006,09,04,06,12,11.70
2006,09,04,06,13,11.70
2006,09,04,06,14,11.70
2006,09,04,06,15,11.70
2006,09,04,06,16,11.70
2006,09,04,06,17,11.70
2006,09,04,06,18,11.80
2006,09,04,06,19,11.80
2006,09,04,06,20,11.80
2006,09,04,06,21,11.80
2006,09,04,06,22,11.80
2006,09,04,06,23,11.80
2006,09,04,06,24,11.80
2006,09,04,06,25,11.70
2006,09,04,06,26,11.70
2006,09,04,06,27,11.70
2006,09,04,06,28,11.70
2006,09,04,06,29,11.70
2006,09,04,06,30,11.70
2006,09,04,06,31,11.60
2006,09,04,06,32,11.60
2006,09,04,06,33,11.60
2006,09,04,06,34,11.60
2006,09,04,06,35,11.60
2006,09,04,06,36,11.60
2006,09,04,06,37,11.60
2006,09,04,06,38,11.70
2006,09,04,06,39,11.70
2006,09,04,06,40,11.70
2006,09,04,06,41,11.80
2006,09,04,06,42,11.80
2006,09,04,06,43,11.80
2006,09,04,06,44,11.80
2006,09,04,06,45,11.80
2006,09,04,06,46,11.90
2006,09,04,06,47,11.90
2006,09,04,06,48,11.90
2006,09,04,06,49,11.90
2006,09,04,06,50,11.90
2006,09,04,06,51,11.90
2006,09,04,06,52,12.00
2006,09,04,06,53,12.00
2006,09,04,06,54,12.00
2006,09,04,06,55,12.00
2006,09,04,06,56,12.00
2006,09,04,06,57,12.00
2006,09,04,06,58,12.00
2006,09,04,06,59,12.00
2006,09,04,07,00,12.10
2006,09,04,07,01,12.10
2006,09,04,07,02,12.10
2006,09,04,07,03,12.10
2006,09,04,07,04,12.10
2006,09,04,07,05,12.10
2006,09,04,07,06,12.10
2006,09,04,07,07,12.10
2006,09,04,07,08,12.10
2006,09,04,07,09,12.10
2006,09,04,07,10,12.10
2006,09,04,07,11,12.10
2006,09,04,07,12,12.10
2006,09,04,07,13,12.10
2006,09,04,07,14,12.10
2006,09,04,07,15,12.10
2006,09,04,07,16,12.00
2006,09,04,07,17,12.00
2006,09,04,07,18,12.00
2006,09,04,07,19,12.00
2006,09,04,07,20,12.00
2006,09,04,07,21,12.00
2006,09,04,07,22,12.10
2006,09,04,07,23,12.10
2006,09,04,07,24,12.10
2006,09,04,07,25,12.10
2006,09,04,07,26,12.20
2006,09,04,07,27,12.20
2006,09,04,07,28,12.20
2006,09,04,07,29,12.20
2006,09,04,07,30,12.20
2006,09,04,07,31,12.20
2006,09,04,07,32,12.20
2006,09,04,07,33,12.20
2006,09,04,07,34,12.20
2006,09,04,07,35,12.20
2006,09,04,07,36,12.20
2006,09,04,07,37,12.30
2006,09,04,07,38,12.30
2006,09,04,07,39,12.30
2006,09,04,07,40,12.30
2006,09,04,07,41,12.40
2006,09,04,07,42,12.40
2006,09,04,07,43,12.50
2006,09,04,07,44,12.60
2006,09,04,07,45,12.60
2006,09,04,07,46,12.70
2006,09,04,07,47,12.80
2006,09,04,07,48,12.80
2006,09,04,07,49,12.80
2006,09,04,07,50,12.90
2006,09,04,07,51,13.00
2006,09,04,07,52,13.00
2006,09,04,07,53,13.10
2006,09,04,07,54,13.10
2006,09,04,07,55,13.10
2006,09,04,07,56,13.10
2006,09,04,07,57,13.10
2006,09,04,07,58,13.20
2006,09,04,07,59,13.20
2006,09,04,08,00,13.30
2006,09,04,08,01,13.30
2006,09,04,08,02,13.30
2006,09,04,08,03,13.40
2006,09,04,08,04,13.40
2006,09,04,08,05,13.40
2006,09,04,08,06,13.50
2006,09,04,08,07,13.60
2006,09,04,08,08,13.70
2006,09,04,08,09,13.80
2006,09,04,08,10,13.90
2006,09,04,08,11,14.00
2006,09,04,08,12,14.10
2006,09,04,08,13,14.20
2006,09,04,08,14,14.30
2006,09,04,08,15,14.50
2006,09,04,08,16,14.60
2006,09,04,08,17,14.60
2006,09,04,08,18,14.70
2006,09,04,08,19,14.70
2006,09,04,08,20,14.70
2006,09,04,08,21,14.70
2006,09,04,08,22,14.70
2006,09,04,08,23,14.70
2006,09,04,08,24,14.70
2006,09,04,08,25,14.80
2006,09,04,08,26,14.80
2006,09,04,08,27,15.00
2006,09,04,08,28,15.10
2006,09,04,08,29,15.20
2006,09,04,08,30,15.30
2006,09,04,08,31,15.30
2006,09,04,08,32,15.40
2006,09,04,08,33,15.40
2006,09,04,08,34,15.40
2006,09,04,08,35,15.40
2006,09,04,08,36,15.40
2006,09,04,08,37,15.40
2006,09,04,08,38,15.30
2006,09,04,08,39,15.30
2006,09,04,08,40,15.30
2006,09,04,08,41,15.40
2006,09,04,08,42,15.50
2006,09,04,08,43,15.50
2006,09,04,08,44,15.50
2006,09,04,08,45,15.50
2006,09,04,08,46,15.60
2006,09,04,08,47,15.60
2006,09,04,08,48,15.60
2006,09,04,08,49,15.60
2006,09,04,08,50,15.70
2006,09,04,08,51,15.80
2006,09,04,08,52,15.90
2006,09,04,08,53,16.00
2006,09,04,08,54,16.10
2006,09,04,08,55,16.30
2006,09,04,08,56,16.40
2006,09,04,08,57,16.60
2006,09,04,08,58,16.70
2006,09,04,08,59,16.80
2006,09,04,09,00,16.90
2006,09,04,09,01,17.10
2006,09,04,09,02,17.20
2006,09,04,09,03,17.30
2006,09,04,09,04,17.40
2006,09,04,09,05,17.50
2006,09,04,09,06,17.60
2006,09,04,09,07,17.70
2006,09,04,09,08,17.90
2006,09,04,09,09,18.00
2006,09,04,09,10,18.10
2006,09,04,09,11,18.10
2006,09,04,09,12,18.20
2006,09,04,09,13,18.20
2006,09,04,09,14,18.20
2006,09,04,09,15,18.20
2006,09,04,09,16,18.20
2006,09,04,09,17,18.20
2006,09,04,09,18,18.30
2006,09,04,09,19,18.40
2006,09,04,09,20,18.50
2006,09,04,09,21,18.50
2006,09,04,09,22,18.50
2006,09,04,09,23,18.40
2006,09,04,09,24,18.30
2006,09,04,09,25,18.20
2006,09,04,09,26,17.90
2006,09,04,09,27,17.80
2006,09,04,09,28,17.70
2006,09,04,09,29,17.70
2006,09,04,09,30,17.60
2006,09,04,09,31,17.50
2006,09,04,09,32,17.50
2006,09,04,09,33,17.50
2006,09,04,09,34,17.60
2006,09,04,09,35,17.60
2006,09,04,09,36,17.60
2006,09,04,09,37,17.60
2006,09,04,09,38,17.50
2006,09,04,09,39,17.50
2006,09,04,09,40,17.60
2006,09,04,09,41,17.60
2006,09,04,09,42,17.50
2006,09,04,09,43,17.60
2006,09,04,09,44,17.60
2006,09,04,09,45,17.50
2006,09,04,09,46,17.60
2006,09,04,09,47,17.70
2006,09,04,09,48,17.90
2006,09,04,09,49,18.00
2006,09,04,09,50,18.10
2006,09,04,09,51,18.10
2006,09,04,09,52,18.10
2006,09,04,09,53,18.10
2006,09,04,09,54,18.20
2006,09,04,09,55,18.20
2006,09,04,09,56,18.20
2006,09,04,09,57,18.30
2006,09,04,09,58,18.50
2006,09,04,09,59,18.60
2006,09,04,10,00,18.80
2006,09,04,10,01,18.90
2006,09,04,10,02,19.00
2006,09,04,10,03,19.20
2006,09,04,10,04,19.30
2006,09,04,10,05,19.40
2006,09,04,10,06,19.50
2006,09,04,10,07,19.40
2006,09,04,10,08,19.40
2006,09,04,10,09,19.30
2006,09,04,10,10,19.30
2006,09,04,10,11,19.20
2006,09,04,10,12,19.20
2006,09,04,10,13,19.30
2006,09,04,10,14,19.40
2006,09,04,10,15,19.50
2006,09,04,10,16,19.60
2006,09,04,10,17,19.70
2006,09,04,10,18,19.80
2006,09,04,10,19,19.80
2006,09,04,10,20,19.90
2006,09,04,10,21,20.10
2006,09,04,10,22,20.20
2006,09,04,10,23,20.30
2006,09,04,10,24,20.50
2006,09,04,10,25,20.60
2006,09,04,10,26,20.80
2006,09,04,10,27,20.90
2006,09,04,10,28,21.00
2006,09,04,10,29,21.20
2006,09,04,10,30,21.30
2006,09,04,10,31,21.30
2006,09,04,10,32,21.30
2006,09,04,10,33,21.20
2006,09,04,10,34,21.10
2006,09,04,10,35,21.10
2006,09,04,10,36,21.00
2006,09,04,10,37,20.80
2006,09,04,10,38,20.70
2006,09,04,10,39,20.50
2006,09,04,10,40,20.40
2006,09,04,10,41,20.30
2006,09,04,10,42,20.30
2006,09,04,10,43,20.20
2006,09,04,10,44,20.20
2006,09,04,10,45,20.10
2006,09,04,10,46,20.10
2006,09,04,10,47,20.00
2006,09,04,10,48,19.90
2006,09,04,10,49,19.90
2006,09,04,10,50,19.90
2006,09,04,10,51,19.80
2006,09,04,10,52,19.80
2006,09,04,10,53,19.80
2006,09,04,10,54,19.80
2006,09,04,10,55,19.90
2006,09,04,10,56,19.90
2006,09,04,10,57,19.90
2006,09,04,10,58,19.90
2006,09,04,10,59,19.90
2006,09,04,11,00,19.90
2006,09,04,11,01,20.10
2006,09,04,11,02,20.10
2006,09,04,11,03,20.10
2006,09,04,11,04,20.20
2006,09,04,11,05,20.20
2006,09,04,11,06,20.30
2006,09,04,11,07,20.30
2006,09,04,11,08,20.40
2006,09,04,11,09,20.50
2006,09,04,11,10,20.70
2006,09,04,11,11,20.80
2006,09,04,11,12,20.90
2006,09,04,11,13,21.00
2006,09,04,11,14,21.20
2006,09,04,11,15,21.20
2006,09,04,11,16,21.20
2006,09,04,11,17,21.30
2006,09,04,11,18,21.30
2006,09,04,11,19,21.40
2006,09,04,11,20,21.50
2006,09,04,11,21,21.60
2006,09,04,11,22,21.60
2006,09,04,11,23,21.70
2006,09,04,11,24,21.70
2006,09,04,11,25,21.80
2006,09,04,11,26,21.80
2006,09,04,11,27,21.80
2006,09,04,11,28,21.60
2006,09,04,11,29,21.60
2006,09,04,11,30,21.60
2006,09,04,11,31,21.60
2006,09,04,11,32,21.60
2006,09,04,11,33,21.60
2006,09,04,11,34,21.60
2006,09,04,11,35,21.60
2006,09,04,11,36,21.50
2006,09,04,11,37,21.60
2006,09,04,11,38,21.60
2006,09,04,11,39,21.60
2006,09,04,11,40,21.60
2006,09,04,11,41,21.60
2006,09,04,11,42,21.60
2006,09,04,11,43,21.60
2006,09,04,11,44,21.60
2006,09,04,11,45,21.60
2006,09,04,11,46,21.60
2006,09,04,11,47,21.70
2006,09,04,11,48,21.70
2006,09,04,11,49,21.70
2006,09,04,11,50,21.70
2006,09,04,11,51,21.70
2006,09,04,11,52,21.70
2006,09,04,11,53,21.90
2006,09,04,11,54,21.90
2006,09,04,11,55,21.90
2006,09,04,11,56,21.90
2006,09,04,11,57,22.00
2006,09,04,11,58,22.00
2006,09,04,11,59,22.10
2006,09,04,12,00,22.10
2006,09,04,12,01,22.20
2006,09,04,12,02,22.20
2006,09,04,12,03,22.20
2006,09,04,12,04,22.20
2006,09,04,12,05,22.20
2006,09,04,12,06,22.30
2006,09,04,12,07,22.30
2006,09,04,12,08,22.30
2006,09,04,12,09,22.30
2006,09,04,12,10,22.30
2006,09,04,12,11,22.30
2006,09,04,12,12,22.30
2006,09,04,12,13,22.30
2006,09,04,12,14,22.30
2006,09,04,12,15,22.30
2006,09,04,12,16,22.30
2006,09,04,12,17,22.40
2006,09,04,12,18,22.40
2006,09,04,12,19,22.40
2006,09,04,12,20,22.50
2006,09,04,12,21,22.40
2006,09,04,12,22,22.40
2006,09,04,12,23,22.40
2006,09,04,12,24,22.40
2006,09,04,12,25,22.50
2006,09,04,12,26,22.60
2006,09,04,12,27,22.70
2006,09,04,12,28,22.70
2006,09,04,12,29,22.80
2006,09,04,12,30,22.90
2006,09,04,12,31,23.00
2006,09,04,12,32,23.10
2006,09,04,12,33,23.10
2006,09,04,12,34,23.30
2006,09,04,12,35,23.30
2006,09,04,12,36,23.30
2006,09,04,12,37,23.30
2006,09,04,12,38,23.30
2006,09,04,12,39,23.40
2006,09,04,12,40,23.50
2006,09,04,12,41,23.50
2006,09,04,12,42,23.40
2006,09,04,12,43,23.30
2006,09,04,12,44,23.30
2006,09,04,12,45,23.30
2006,09,04,12,46,23.30
2006,09,04,12,47,23.20
2006,09,04,12,48,23.10
2006,09,04,12,49,23.00
2006,09,04,12,50,23.10
2006,09,04,12,51,23.10
2006,09,04,12,52,23.20
2006,09,04,12,53,23.30
2006,09,04,12,54,23.30
2006,09,04,12,55,23.30
2006,09,04,12,56,23.40
2006,09,04,12,57,23.40
2006,09,04,12,58,23.30
2006,09,04,12,59,23.40
2006,09,04,13,00,23.40
2006,09,04,13,01,23.40
2006,09,04,13,02,23.40
2006,09,04,13,03,23.60
2006,09,04,13,04,23.60
2006,09,04,13,05,23.50
2006,09,04,13,06,23.30
2006,09,04,13,07,23.30
2006,09,04,13,08,23.00
2006,09,04,13,09,22.90
2006,09,04,13,10,22.90
2006,09,04,13,11,22.90
2006,09,04,13,12,23.10
2006,09,04,13,13,23.20
2006,09,04,13,14,23.30
2006,09,04,13,15,23.30
2006,09,04,13,16,23.30
2006,09,04,13,17,23.30
2006,09,04,13,18,23.40
2006,09,04,13,19,23.40
2006,09,04,13,20,23.40
2006,09,04,13,21,23.50
2006,09,04,13,22,23.70
2006,09,04,13,23,23.70
2006,09,04,13,24,23.80
2006,09,04,13,25,23.80
2006,09,04,13,26,23.90
2006,09,04,13,27,24.00
2006,09,04,13,28,24.10
2006,09,04,13,29,24.20
2006,09,04,13,30,24.30
2006,09,04,13,31,24.40
2006,09,04,13,32,24.50
2006,09,04,13,33,24.60
2006,09,04,13,34,24.60
2006,09,04,13,35,24.50
2006,09,04,13,36,24.40
2006,09,04,13,37,24.30
2006,09,04,13,38,24.20
2006,09,04,13,39,24.30
2006,09,04,13,40,24.20
2006,09,04,13,41,24.20
2006,09,04,13,42,24.30
2006,09,04,13,43,24.40
2006,09,04,13,44,24.40
2006,09,04,13,45,24.40
2006,09,04,13,46,24.40
2006,09,04,13,47,24.20
2006,09,04,13,48,24.10
2006,09,04,13,49,24.00
2006,09,04,13,50,23.80
2006,09,04,13,51,23.90
2006,09,04,13,52,24.00
2006,09,04,13,53,24.10
2006,09,04,13,54,24.10
2006,09,04,13,55,24.20
2006,09,04,13,56,24.20
2006,09,04,13,57,24.10
2006,09,04,13,58,24.10
2006,09,04,13,59,24.20
2006,09,04,14,00,24.20
2006,09,04,14,01,24.20
2006,09,04,14,02,24.30
2006,09,04,14,03,24.40
2006,09,04,14,04,24.50
2006,09,04,14,05,24.50
2006,09,04,14,06,24.40
2006,09,04,14,07,24.20
2006,09,04,14,08,24.10
2006,09,04,14,09,24.20
2006,09,04,14,10,24.20
2006,09,04,14,11,24.10
2006,09,04,14,12,24.10
2006,09,04,14,13,24.10
2006,09,04,14,14,24.10
2006,09,04,14,15,24.20
2006,09,04,14,16,24.20
2006,09,04,14,17,24.20
2006,09,04,14,18,24.10
2006,09,04,14,19,24.10
2006,09,04,14,20,24.10
2006,09,04,14,21,24.10
2006,09,04,14,22,24.20
2006,09,04,14,23,24.30
2006,09,04,14,24,24.30
2006,09,04,14,25,24.30
2006,09,04,14,26,24.30
2006,09,04,14,27,24.40
2006,09,04,14,28,24.40
2006,09,04,14,29,24.50
2006,09,04,14,30,24.60
2006,09,04,14,31,24.60
2006,09,04,14,32,24.60
2006,09,04,14,33,24.60
2006,09,04,14,34,24.50
2006,09,04,14,35,24.60
2006,09,04,14,36,24.60
2006,09,04,14,37,24.70
2006,09,04,14,38,24.80
2006,09,04,14,39,24.80
2006,09,04,14,40,24.80
2006,09,04,14,41,24.80
2006,09,04,14,42,24.80
2006,09,04,14,43,24.80
2006,09,04,14,44,24.80
2006,09,04,14,45,24.80
2006,09,04,14,46,24.70
2006,09,04,14,47,24.50
2006,09,04,14,48,24.50
2006,09,04,14,49,24.60
2006,09,04,14,50,24.70
2006,09,04,14,51,24.80
2006,09,04,14,52,24.90
2006,09,04,14,53,24.90
2006,09,04,14,54,24.90
2006,09,04,14,55,25.00
2006,09,04,14,56,25.00
2006,09,04,14,57,25.10
2006,09,04,14,58,25.20
2006,09,04,14,59,25.30
2006,09,04,15,00,25.40
2006,09,04,15,01,25.40
2006,09,04,15,02,25.40
2006,09,04,15,03,25.30
2006,09,04,15,04,25.40
2006,09,04,15,05,25.50
2006,09,04,15,06,25.60
2006,09,04,15,07,25.70
2006,09,04,15,08,25.80
2006,09,04,15,09,25.80
2006,09,04,15,10,25.90
2006,09,04,15,11,26.00
2006,09,04,15,12,26.00
2006,09,04,15,13,26.00
2006,09,04,15,14,26.00
2006,09,04,15,15,26.00
2006,09,04,15,16,26.00
2006,09,04,15,17,25.90
2006,09,04,15,18,25.90
2006,09,04,15,19,25.90
2006,09,04,15,20,25.80
2006,09,04,15,21,25.70
2006,09,04,15,22,25.70
2006,09,04,15,23,25.70
2006,09,04,15,24,25.70
2006,09,04,15,25,25.70
2006,09,04,15,26,25.70
2006,09,04,15,27,25.70
2006,09,04,15,28,25.60
2006,09,04,15,29,25.50
2006,09,04,15,30,25.40
2006,09,04,15,31,25.40
2006,09,04,15,32,25.40
2006,09,04,15,33,25.40
2006,09,04,15,34,25.50
2006,09,04,15,35,25.40
2006,09,04,15,36,25.40
2006,09,04,15,37,25.30
2006,09,04,15,38,25.10
2006,09,04,15,39,24.90
2006,09,04,15,40,24.80
2006,09,04,15,41,24.70
2006,09,04,15,42,24.60
2006,09,04,15,43,24.60
2006,09,04,15,44,24.70
2006,09,04,15,45,24.70
2006,09,04,15,46,24.60
2006,09,04,15,47,24.60
2006,09,04,15,48,24.60
2006,09,04,15,49,24.50
2006,09,04,15,50,24.50
2006,09,04,15,51,24.50
2006,09,04,15,52,24.50
2006,09,04,15,53,24.40
2006,09,04,15,54,24.30
2006,09,04,15,55,24.20
2006,09,04,15,56,24.30
2006,09,04,15,57,24.40
2006,09,04,15,58,24.50
2006,09,04,15,59,24.50
2006,09,04,16,00,24.40
2006,09,04,16,01,24.30
2006,09,04,16,02,24.20
2006,09,04,16,03,24.20
2006,09,04,16,04,24.20
2006,09,04,16,05,24.20
2006,09,04,16,06,24.20
2006,09,04,16,07,24.20
2006,09,04,16,08,24.20
2006,09,04,16,09,24.20
2006,09,04,16,10,24.20
2006,09,04,16,11,24.30
2006,09,04,16,12,24.30
2006,09,04,16,13,24.40
2006,09,04,16,14,24.50
2006,09,04,16,15,24.50
2006,09,04,16,16,24.50
2006,09,04,16,17,24.50
2006,09,04,16,18,24.60
2006,09,04,16,19,24.50
2006,09,04,16,20,24.50
2006,09,04,16,21,24.40
2006,09,04,16,22,24.40
2006,09,04,16,23,24.50
2006,09,04,16,24,24.60
2006,09,04,16,25,24.60
2006,09,04,16,26,24.70
2006,09,04,16,27,24.60
2006,09,04,16,28,24.60
2006,09,04,16,29,24.50
2006,09,04,16,30,24.40
2006,09,04,16,31,24.40
2006,09,04,16,32,24.40
2006,09,04,16,33,24.50
2006,09,04,16,34,24.50
2006,09,04,16,35,24.50
2006,09,04,16,36,24.60
2006,09,04,16,37,24.60
2006,09,04,16,38,24.50
2006,09,04,16,39,24.50
2006,09,04,16,40,24.40
2006,09,04,16,41,24.30
2006,09,04,16,42,24.10
2006,09,04,16,43,24.00
2006,09,04,16,44,23.90
2006,09,04,16,45,23.70
2006,09,04,16,46,23.70
2006,09,04,16,47,23.70
2006,09,04,16,48,23.80
2006,09,04,16,49,23.80
2006,09,04,16,50,23.90
2006,09,04,16,51,23.90
2006,09,04,16,52,23.80
2006,09,04,16,53,23.70
2006,09,04,16,54,23.70
2006,09,04,16,55,23.70
2006,09,04,16,56,23.60
2006,09,04,16,57,23.50
2006,09,04,16,58,23.40
2006,09,04,16,59,23.30
2006,09,04,17,00,23.20
2006,09,04,17,01,23.10
2006,09,04,17,02,22.90
2006,09,04,17,03,22.80
2006,09,04,17,04,22.70
2006,09,04,17,05,22.60
2006,09,04,17,06,22.50
2006,09,04,17,07,22.40
2006,09,04,17,08,22.30
2006,09,04,17,09,22.30
2006,09,04,17,10,22.20
2006,09,04,17,11,22.20
2006,09,04,17,12,22.20
2006,09,04,17,13,22.20
2006,09,04,17,14,22.20
2006,09,04,17,15,22.20
2006,09,04,17,16,22.30
2006,09,04,17,17,22.30
2006,09,04,17,18,22.40
2006,09,04,17,19,22.50